This demonstration page uses our WeatherBlox Daily Observations layout. Learn more.

Hourly Observations for October 11, 2020

Temp ( °F °C ) Dew Point ( °F °C ) Humidity (%) Winds ( mph kmh ) Pressure ( in mb ) Visibility ( mi km ) Precip ( " mm )
12:15 am 00:15 Mostly Cloudy 59 15 59 15 100 100 Calm 30.03 1017 10 16.0934 0 0
12:35 am 00:35 Cloudy 59 15 59 15 100 100 NW 5 7 30.03 1017 10 16.0934 0 0
12:55 am 00:55 Mostly Cloudy 59 15 59 15 100 100 W 3 6 30.03 1017 10 16.0934 0 0
1:15 am 01:15 Mostly Cloudy 59 15 59 15 100 100 WNW 3 6 30.03 1017 10 16.0934 0 0
1:35 am 01:35 Cloudy 61 16 59 15 94 94 Calm 30.03 1017 10 16.0934 0 0
1:55 am 01:55 Cloudy 61 16 59 15 94 94 Calm 30.03 1017 10 16.0934 0 0
2:15 am 02:15 Cloudy 61 16 59 15 94 94 S 5 7 30.04 1017 10 16.0934 0 0
2:35 am 02:35 Cloudy 61 16 59 15 94 94 S 3 6 30.03 1017 10 16.0934 0 0
2:55 am 02:55 Cloudy 61 16 59 15 94 94 Calm 30.02 1016 10 16.0934 0 0
3:15 am 03:15 Cloudy 59 15 59 15 100 100 Calm 30.02 1017 10 16.0934 0 0
3:35 am 03:35 Cloudy 61 16 59 15 94 94 Calm 30.02 1016 10 16.0934 0 0
3:55 am 03:55 Mostly Cloudy 59 15 59 15 100 100 Calm 30.01 1016 10 16.0934 0 0
4:15 am 04:15 Partly Cloudy 59 15 59 15 100 100 SSE 5 7 30 1016 10 16.0934 0 0
4:35 am 04:35 Clear 59 15 59 15 100 100 Calm 30 1016 10 16.0934 0 0
4:55 am 04:55 Partly Cloudy 59 15 59 15 100 100 Calm 30.01 1016 10 16.0934 0 0
5:15 am 05:15 Mostly Cloudy 57 14 57 14 100 100 Calm 30.01 1016 10 16.0934 0 0
5:35 am 05:35 Partly Cloudy 57 14 57 14 100 100 Calm 30.02 1017 10 16.0934 0 0
5:55 am 05:55 Clear 55 13 55 13 100 100 Calm 30.02 1017 10 16.0934 0 0
6:15 am 06:15 Clear 55 13 55 13 100 100 Calm 30.03 1017 10 16.0934 0 0
6:35 am 06:35 Clear 55 13 55 13 100 100 Calm 30.03 1017 10 16.0934 0 0
6:55 am 06:55 Clear 55 13 55 13 100 100 Calm 30.04 1017 10 16.0934 0 0
7:15 am 07:15 Mostly Cloudy 55 13 55 13 100 100 Calm 30.05 1018 10 16.0934 0 0
7:35 am 07:35 Cloudy 55 13 55 13 100 100 Calm 30.05 1018 10 16.0934 0 0
7:55 am 07:55 Cloudy 55 13 55 13 100 100 Calm 30.05 1018 10 16.0934 0 0
8:15 am 08:15 Mostly Cloudy 55 13 55 13 100 100 Calm 30.05 1018 10 16.0934 0 0
8:35 am 08:35 Partly Cloudy 55 13 55 13 100 100 Calm 30.05 1018 10 16.0934 0 0
8:55 am 08:55 Sunny 55 13 55 13 100 100 Calm 30.06 1018 10 16.0934 0 0
9:15 am 09:15 Partly Cloudy 57 14 57 14 100 100 Calm 30.07 1018 10 16.0934 0 0
9:35 am 09:35 Cloudy 59 15 59 15 100 100 Calm 30.07 1018 10 16.0934 0 0
9:55 am 09:55 Cloudy 59 15 59 15 100 100 Calm 30.07 1018 10 16.0934 0 0
10:15 am 10:15 Cloudy 59 15 59 15 100 100 Calm 30.08 1019 10 16.0934 0 0
10:35 am 10:35 Cloudy 61 16 59 15 94 94 Calm 30.08 1019 10 16.0934 0 0
10:55 am 10:55 Cloudy 61 16 61 16 100 100 Calm 30.08 1019 10 16.0934 0 0
11:15 am 11:15 Cloudy 63 17 61 16 94 94 Calm 30.08 1018 10 16.0934 0 0
11:35 am 11:35 Cloudy 63 17 61 16 94 94 Calm 30.08 1018 10 16.0934 0 0
11:55 am 11:55 Mostly Cloudy 63 17 61 16 94 94 Calm 30.07 1018 10 16.0934 0 0
12:15 pm 12:15 Sunny 64 18 61 16 88 88 ENE 6 9 30.05 1018 10 16.0934 0 0
12:35 pm 12:35 Partly Cloudy 64 18 61 16 88 88 ENE 6 9 30.05 1018 10 16.0934 0 0
12:55 pm 12:55 Cloudy 64 18 63 17 94 94 NE 3 6 30.05 1018 10 16.0934 0 0
1:15 pm 13:15 Cloudy 64 18 63 17 94 94 NE 6 9 30.04 1017 10 16.0934 0 0
1:35 pm 13:35 Mostly Cloudy 66 19 63 17 88 88 E 5 7 30.03 1017 10 16.0934 0 0
1:55 pm 13:55 Mostly Cloudy 66 19 63 17 88 88 E 3 6 30.03 1017 10 16.0934 0 0
2:15 pm 14:15 Cloudy 68 20 63 17 83 83 E 6 9 30.03 1017 10 16.0934 0 0
2:35 pm 14:35 Cloudy 66 19 63 17 88 88 ENE 5 7 30.03 1017 10 16.0934 0 0
2:55 pm 14:55 Cloudy 64 18 63 17 94 94 SE 3 6 30.03 1017 10 16.0934 0 0
3:15 pm 15:15 Cloudy 64 18 63 17 94 94 S 6 9 30.03 1017 10 16.0934 0 0
3:35 pm 15:35 Cloudy 64 18 63 17 94 94 SSE 6 9 30.02 1017 10 16.0934 0 0
3:55 pm 15:55 Cloudy 64 18 63 17 94 94 SSE 7 11 30.03 1017 7 11.26538 0 0
4:15 pm 16:15 Cloudy 63 17 63 17 100 100 SSE 7 11 30.04 1017 7 11.26538 0 0
4:35 pm 16:35 Cloudy N/A N/A N/A SE 5 7 N/A 4 6.43736 0 0
4:55 pm 16:55 Cloudy 63 17 63 17 100 100 SE 3 6 30.04 1017 5 8.0467 0 0
5:15 pm 17:15 Cloudy 61 16 61 16 100 100 SSE 7 11 30.04 1017 7 11.26538 0 0
5:35 pm 17:35 Cloudy 61 16 61 16 100 100 SE 5 7 30.04 1017 10 16.0934 0 0
5:55 pm 17:55 Cloudy 61 16 61 16 100 100 SE 3 6 30.05 1018 10 16.0934 0 0
6:15 pm 18:15 Cloudy 61 16 61 16 100 100 SE 5 7 30.06 1018 10 16.0934 0 0
6:35 pm 18:35 Cloudy 61 16 61 16 100 100 SSE 3 6 30.06 1018 4 6.43736 0 0
6:55 pm 18:55 Cloudy 61 16 61 16 100 100 SE 7 11 30.06 1018 4 6.43736 0 0
9:15 pm 21:15 Cloudy N/A N/A N/A ENE 5 7 N/A 5 8.0467 0 0
9:35 pm 21:35 Cloudy N/A N/A N/A ENE 6 9 N/A 4 6.43736 0 0
9:55 pm 21:55 Cloudy N/A N/A N/A E 5 7 N/A 4 6.43736 0 0
10:15 pm 22:15 Cloudy N/A N/A N/A ESE 5 7 N/A 4 6.43736 0 0
10:35 pm 22:35 Cloudy N/A N/A N/A E 5 7 N/A 4 6.43736 0 0
10:55 pm 22:55 Cloudy N/A N/A N/A ESE 8 13 N/A 4 6.43736 0 0
11:15 pm 23:15 Cloudy N/A N/A N/A E 7 11 N/A 7 11.26538 0 0
11:35 pm 23:35 Cloudy N/A N/A N/A E 3 6 N/A 4 6.43736 0 0
11:55 pm 23:55 Cloudy N/A N/A N/A ENE 8 13 N/A 4 6.43736 0 0

Powered by AerisWeather